FW4655 Weather Reports


Display with metric or nautical units.
time (UTC)temp
F
wind
direction
speed
MPH
gust
MPH
rain 1hr
in
rain 24hr
in
rain mn
in
humidity
%
barometer
mb
20260507012509 65 58 4.0 9.0 0.00 0.00 0.00 66 1020.8
20260507012010 65 42 4.0 11.0 0.00 0.00 0.00 65 1020.9
20260507011530 65 75 6.0 11.0 0.00 0.00 0.00 65 1020.9
20260507011007 65 80 5.0 10.0 0.00 0.00 0.00 64 1020.9
20260507010513 66 106 5.0 11.0 0.00 0.00 0.00 64 1020.9
20260507010037 66 76 5.0 11.0 0.00 0.00 0.00 64 1020.9
20260507005507 66 75 4.0 10.0 0.00 0.00 0.00 64 1020.8
20260507005019 66 54 6.0 10.0 0.00 0.00 0.00 63 1020.8
20260507004524 67 53 4.0 12.0 0.00 0.00 0.00 64 1020.8
20260507004011 67 97 4.0 12.0 0.00 0.00 0.00 64 1020.7
20260507003511 68 56 4.0 9.0 0.00 0.00 0.00 63 1020.7
20260507003025 68 51 4.0 10.0 0.00 0.00 0.00 64 1020.7
20260507002509 68 58 3.0 10.0 0.00 0.00 0.00 63 1020.7
20260507002009 68 96 3.0 9.0 0.00 0.00 0.00 63 1020.6
20260507001520 69 31 2.0 12.0 0.00 0.00 0.00 62 1020.7
20260507001010 69 47 6.0 12.0 0.00 0.00 0.00 62 1020.7
20260507000517 69 58 3.0 8.0 0.00 0.00 0.00 61 1020.7
20260507000024 69 86 4.0 8.0 0.00 0.00 0.00 60 1020.7
20260506235503 69 29 2.0 8.0 0.00 0.00 0.00 60 1020.6
20260506235007 69 354 2.0 8.0 0.00 0.00 0.00 60 1020.6
20260506234507 70 56 1.0 5.0 0.00 0.00 0.00 59 1020.6
20260506234005 71 89 1.0 3.0 0.00 0.00 0.00 58 1020.6
20260506233507 72 90 1.0 3.0 0.00 0.00 0.00 57 1020.6
20260506233014 72 6 1.0 3.0 0.00 0.00 0.00 57 1020.6
20260506232505 71 22 1.0 4.0 0.00 0.00 0.00 58 1020.7
20260506232008 70 153 1.0 4.0 0.00 0.00 0.00 60 1020.7
20260506231522 71 94 2.0 4.0 0.00 0.00 0.00 58 1020.7
20260506231007 71 77 1.0 4.0 0.00 0.00 0.00 59 1020.8
20260506230507 70 222 2.0 4.0 0.00 0.00 0.00 59 1020.8
20260506230026 70 119 2.0 6.0 0.00 0.00 0.00 60 1020.8
20260506225515 69 91 2.0 6.0 0.00 0.00 0.00 61 1020.9
20260506225008 69 82 4.0 6.0 0.00 0.00 0.00 61 1020.9
20260506224506 69 323 2.0 5.0 0.00 0.00 0.00 60 1021.0
20260506224002 68 319 1.0 4.0 0.00 0.00 0.00 62 1021.1
20260506223503 67 223 1.0 4.0 0.00 0.00 0.00 63 1021.2
20260506223015 67 8 1.0 4.0 0.00 0.00 0.00 62 1021.3
20260506222504 68 300 0.0 3.0 0.00 0.00 0.00 62 1021.3
20260506222013 67 120 1.0 3.0 0.00 0.00 0.00 62 1021.3
20260506221516 68 93 2.0 3.0 0.00 0.00 0.00 62 1021.4
20260506221012 68 86 1.0 3.0 0.00 0.00 0.00 63 1021.4
20260506220505 68 232 0.0 3.0 0.00 0.00 0.00 64 1021.5
20260506220028 67 122 1.0 4.0 0.00 0.00 0.00 64 1021.4
20260506215506 67 207 1.0 4.0 0.00 0.00 0.00 64 1021.4
20260506215012 66 264 1.0 5.0 0.00 0.00 0.00 66 1021.3
20260506214525 67 250 2.0 5.0 0.00 0.00 0.00 66 1021.3
20260506214008 66 309 2.0 4.0 0.00 0.00 0.00 65 1021.3
20260506213510 66 83 1.0 5.0 0.00 0.00 0.00 66 1021.4
20260506213008 66 141 3.0 5.0 0.00 0.00 0.00 66 1021.5
20260506212503 66 103 2.0 4.0 0.00 0.00 0.00 67 1021.6
20260506212006 65 89 1.0 2.0 0.00 0.00 0.00 68 1021.6
20260506211511 65 319 1.0 4.0 0.00 0.00 0.00 68 1021.7
20260506211006 65 105 1.0 5.0 0.00 0.00 0.00 68 1021.8
20260506210509 65 65 1.0 5.0 0.00 0.00 0.00 68 1021.8
20260506210018 65 94 2.0 5.0 0.00 0.00 0.00 68 1021.8
20260506205508 66 128 1.0 3.0 0.00 0.00 0.00 67 1021.8
20260506205008 65 101 0.0 4.0 0.00 0.00 0.00 66 1021.8
20260506204528 65 257 2.0 4.0 0.00 0.00 0.00 67 1021.8
20260506204010 65 157 0.0 3.0 0.00 0.00 0.00 67 1021.8
20260506203518 65 220 0.0 7.0 0.00 0.00 0.00 67 1021.8
20260506203029 65 297 1.0 7.0 0.00 0.00 0.00 68 1021.7
20260506202507 65 228 1.0 4.0 0.00 0.00 0.00 68 1021.7
20260506202012 65 54 1.0 4.0 0.00 0.00 0.00 68 1021.7
20260506201532 65 211 0.0 4.0 0.00 0.00 0.00 69 1021.8
20260506201008 64 293 0.0 4.0 0.00 0.00 0.00 69 1021.8
20260506200508 64 262 0.0 4.0 0.00 0.00 0.00 69 1021.8
20260506200013 63 226 0.0 4.0 0.00 0.00 0.00 70 1021.9
20260506195507 63 310 1.0 4.0 0.00 0.00 0.00 70 1022.1
20260506195010 62 311 1.0 3.0 0.00 0.00 0.00 72 1022.2
20260506194518 62 290 0.0 4.0 0.00 0.00 0.00 72 1022.2
20260506194009 62 25 1.0 4.0 0.00 0.00 0.00 72 1022.2
20260506193509 62 340 0.0 4.0 0.00 0.00 0.00 72 1022.3
20260506193023 62 3 2.0 4.0 0.00 0.00 0.00 72 1022.4
20260506192509 62 294 1.0 4.0 0.00 0.00 0.00 72 1022.3
20260506192011 62 309 1.0 4.0 0.00 0.00 0.00 73 1022.1
20260506191527 62 288 0.0 4.0 0.00 0.00 0.00 73 1022.1
20260506191007 62 313 1.0 4.0 0.00 0.00 0.00 73 1022.1
20260506190509 62 300 1.0 3.0 0.00 0.00 0.00 73 1022.2
20260506190028 61 269 0.0 3.0 0.00 0.00 0.00 74 1022.2
20260506185509 61 321 1.0 3.0 0.00 0.00 0.00 73 1022.2
20260506185005 61 97 2.0 3.0 0.00 0.00 0.00 73 1022.0
20260506184516 61 91 1.0 3.0 0.00 0.00 0.00 75 1022.0
20260506184008 61 298 1.0 3.0 0.00 0.00 0.00 75 1022.1
20260506183508 61 340 2.0 3.0 0.00 0.00 0.00 75 1022.0
20260506183018 61 39 1.0 3.0 0.00 0.00 0.00 74 1022.1
20260506182508 60 245 0.0 0.0 0.00 0.00 0.00 76 1022.2
20260506182010 60 49 0.0 4.0 0.00 0.00 0.00 76 1022.2
20260506181526 60 341 1.0 6.0 0.00 0.00 0.00 77 1022.1
20260506181008 60 359 2.0 6.0 0.00 0.00 0.00 77 1022.1
20260506180510 59 34 1.0 4.0 0.00 0.00 0.00 77 1022.2
20260506180028 60 359 1.0 4.0 0.00 0.00 0.00 76 1022.2
20260506175509 59 311 0.0 0.0 0.00 0.00 0.00 76 1022.2
20260506175010 59 67 0.0 0.0 0.00 0.00 0.00 77 1022.1
20260506174528 59 336 0.0 0.0 0.00 0.00 0.00 76 1022.2
20260506174013 59 349 0.0 0.0 0.00 0.00 0.00 76 1022.1
20260506173510 59 222 0.0 0.0 0.00 0.00 0.00 77 1022.0
20260506173018 59 235 0.0 0.0 0.00 0.00 0.00 77 1021.9
20260506172506 59 229 0.0 2.0 0.00 0.00 0.00 77 1021.9
20260506172008 59 242 0.0 3.0 0.00 0.00 0.00 77 1021.8
20260506171534 59 27 1.0 3.0 0.00 0.00 0.00 77 1021.7
20260506171010 59 259 0.0 3.0 0.00 0.00 0.00 77 1021.8
20260506170510 59 328 2.0 5.0 0.00 0.00 0.00 76 1021.9
20260506170025 59 308 2.0 5.0 0.00 0.00 0.00 77 1021.9
20260506165508 58 30 0.0 3.0 0.00 0.00 0.00 77 1021.9
20260506165010 58 345 0.0 4.0 0.00 0.00 0.00 77 1021.8
20260506164526 58 34 2.0 4.0 0.00 0.00 0.00 77 1021.7
20260506164013 59 60 0.0 4.0 0.00 0.00 0.00 77 1021.7
20260506163513 59 57 2.0 4.0 0.00 0.00 0.00 77 1021.9
20260506163030 58 103 0.0 4.0 0.00 0.00 0.00 78 1021.7
20260506162508 58 59 3.0 4.0 0.00 0.00 0.00 77 1021.7
20260506162012 58 56 2.0 4.0 0.00 0.00 0.00 77 1021.6
20260506161537 58 82 0.0 3.0 0.00 0.00 0.00 78 1021.6
20260506161007 58 79 1.0 3.0 0.00 0.00 0.00 78 1021.7
20260506160513 57 125 0.0 4.0 0.00 0.00 0.00 78 1021.5
20260506160034 57 124 0.0 4.0 0.00 0.00 0.00 78 1021.4
20260506155510 57 72 0.0 5.0 0.00 0.00 0.00 78 1021.4
20260506155011 57 258 1.0 5.0 0.00 0.00 0.00 79 1021.1
20260506154530 56 302 0.0 3.0 0.00 0.00 0.00 80 1021.1
20260506154012 56 250 0.0 0.0 0.00 0.00 0.00 80 1021.1
20260506153514 56 59 0.0 3.0 0.00 0.00 0.00 80 1021.7
20260506153024 56 96 0.0 3.0 0.00 0.00 0.00 80 1021.9
20260506152508 56 49 1.0 5.0 0.00 0.00 0.00 80 1021.9
20260506152015 56 54 1.0 5.0 0.00 0.00 0.00 80 1022.0
20260506151534 56 103 2.0 6.0 0.00 0.00 0.00 80 1022.0
20260506151015 56 84 2.0 6.0 0.00 0.00 0.00 80 1021.9
20260506150516 56 101 2.0 6.0 0.00 0.00 0.00 80 1022.0
20260506150032 56 86 3.0 6.0 0.00 0.00 0.00 80 1021.9
20260506145504 56 99 1.0 4.0 0.00 0.00 0.00 80 1021.9
20260506145005 56 55 0.0 4.0 0.00 0.00 0.00 80 1021.6
20260506144506 56 46 1.0 6.0 0.00 0.00 0.00 80 1021.8
20260506144009 57 57 2.0 6.0 0.00 0.00 0.00 80 1021.7
20260506143505 57 97 3.0 6.0 0.00 0.00 0.00 80 1021.5
20260506143030 57 75 1.0 3.0 0.00 0.00 0.00 81 1021.4
20260506142503 57 96 2.0 3.0 0.00 0.00 0.00 81 1021.2
20260506142007 57 89 2.0 3.0 0.00 0.00 0.00 81 1021.1
20260506141510 57 115 0.0 2.0 0.00 0.00 0.00 81 1020.9
20260506141007 57 54 0.0 2.0 0.00 0.00 0.00 81 1021.0
20260506140505 57 102 0.0 2.0 0.00 0.00 0.00 81 1021.1
20260506140015 57 90 0.0 0.0 0.00 0.00 0.00 81 1021.1
20260506135507 57 78 0.0 0.0 0.00 0.00 0.00 81 1021.1
20260506135007 56 96 0.0 0.0 0.00 0.00 0.00 81 1020.9
20260506134520 56 96 0.0 0.0 0.00 0.00 0.00 81 1020.9
20260506134003 56 95 0.0 0.0 0.00 0.00 0.00 81 1020.8
20260506133503 56 95 0.0 0.0 0.00 0.00 0.00 81 1020.7
20260506133006 56 146 0.0 0.0 0.00 0.00 0.00 81 1020.7
20260506132504 56 146 0.0 0.0 0.00 0.00 0.00 81 1020.7
20260506132008 56 147 0.0 0.0 0.00 0.00 0.00 81 1020.6
20260506131514 56 146 0.0 0.0 0.00 0.00 0.00 81 1020.5
20260506131006 56 146 0.0 0.0 0.00 0.00 0.00 81 1020.5
20260506130505 56 146 0.0 0.0 0.00 0.00 0.00 81 1020.5
20260506130012 56 146 0.0 0.0 0.00 0.00 0.00 81 1020.5
20260506125504 56 146 0.0 0.0 0.00 0.00 0.00 81 1020.4
20260506125008 56 146 0.0 0.0 0.00 0.00 0.00 81 1020.3
20260506124516 56 148 0.0 0.0 0.00 0.00 0.00 81 1020.3
20260506124008 56 148 0.0 2.0 0.00 0.00 0.00 81 1020.3
20260506123507 56 105 0.0 2.0 0.00 0.00 0.00 81 1020.3
20260506123024 56 94 1.0 4.0 0.00 0.00 0.00 81 1020.4
20260506122508 56 99 1.0 4.0 0.00 0.00 0.00 81 1020.4
20260506122006 56 66 0.0 4.0 0.00 0.00 0.00 81 1020.4
20260506121507 56 103 0.0 3.0 0.00 0.00 0.00 81 1020.4
20260506121003 56 94 0.0 3.0 0.00 0.00 0.00 80 1020.4
20260506120505 56 89 0.0 3.0 0.00 0.00 0.00 80 1020.3
20260506120011 56 77 1.0 4.0 0.00 0.00 0.00 80 1020.4
20260506115508 56 95 1.0 4.0 0.00 0.00 0.00 80 1020.2
20260506115007 56 80 1.0 4.0 0.00 0.00 0.00 80 1020.2
20260506114520 56 96 1.0 5.0 0.00 0.00 0.00 80 1020.1
20260506114008 56 115 1.0 5.0 0.00 0.00 0.00 80 1020.0
20260506113509 57 76 1.0 4.0 0.00 0.00 0.00 80 1020.0
20260506113020 57 55 1.0 6.0 0.00 0.00 0.00 80 1020.0
20260506112508 57 143 1.0 6.0 0.00 0.00 0.00 79 1020.0
20260506112011 57 73 2.0 5.0 0.00 0.00 0.00 79 1020.0
20260506111522 57 91 3.0 5.0 0.00 0.00 0.00 79 1019.9
20260506111010 57 51 2.0 4.0 0.00 0.00 0.00 79 1019.8
20260506110515 57 86 0.0 3.0 0.00 0.00 0.00 79 1019.7
20260506110007 57 91 0.0 4.0 0.00 0.00 0.00 79 1019.6
20260506105504 57 58 1.0 5.0 0.00 0.00 0.00 79 1019.6
20260506105007 57 86 2.0 5.0 0.00 0.00 0.00 79 1019.5
20260506104513 57 96 1.0 2.0 0.00 0.00 0.00 79 1019.4
20260506104007 57 112 1.0 3.0 0.00 0.00 0.00 79 1019.3
20260506103507 57 44 1.0 3.0 0.00 0.00 0.00 79 1019.2
20260506103017 57 55 0.0 3.0 0.00 0.00 0.00 79 1019.2
20260506102507 57 81 0.0 3.0 0.00 0.00 0.00 79 1019.1
20260506102008 57 45 0.0 3.0 0.00 0.00 0.00 79 1019.0
20260506101535 57 92 0.0 3.0 0.00 0.00 0.00 78 1018.9
20260506101015 57 100 2.0 3.0 0.00 0.00 0.00 78 1018.9
20260506100511 57 73 0.0 3.0 0.00 0.00 0.00 78 1018.9
20260506100023 57 94 1.0 4.0 0.00 0.00 0.00 78 1018.9
20260506095508 57 76 1.0 4.0 0.00 0.00 0.00 78 1018.9
20260506095011 58 44 1.0 3.0 0.00 0.00 0.00 78 1018.9
20260506094526 58 56 0.0 2.0 0.00 0.00 0.00 78 1018.9
20260506094007 58 36 0.0 2.0 0.00 0.00 0.00 78 1018.8
20260506093512 58 44 0.0 4.0 0.00 0.00 0.00 78 1018.8
20260506093014 58 101 2.0 4.0 0.00 0.00 0.00 78 1018.7
20260506092508 58 71 0.0 0.0 0.00 0.00 0.00 78 1018.8
20260506092010 58 84 0.0 0.0 0.00 0.00 0.00 78 1018.8
20260506091521 58 91 0.0 0.0 0.00 0.00 0.00 78 1018.7
20260506091010 58 89 0.0 0.0 0.00 0.00 0.00 77 1018.7
20260506090510 58 82 0.0 0.0 0.00 0.00 0.00 78 1018.6
20260506090021 58 94 0.0 1.0 0.00 0.00 0.00 77 1018.6
20260506085509 58 75 0.0 5.0 0.00 0.00 0.00 77 1018.6
20260506085011 58 98 0.0 5.0 0.00 0.00 0.00 77 1018.6
20260506084528 59 126 1.0 5.0 0.00 0.00 0.00 77 1018.6
20260506084009 59 84 3.0 5.0 0.00 0.00 0.00 77 1018.6
20260506083511 59 99 1.0 4.0 0.00 0.00 0.00 77 1018.6
20260506083024 59 77 1.0 3.0 0.00 0.00 0.00 77 1018.7
20260506082509 59 96 1.0 4.0 0.00 0.00 0.00 77 1018.7
20260506082006 59 91 1.0 4.0 0.00 0.00 0.00 77 1018.7
20260506081516 59 72 0.0 0.0 0.00 0.00 0.00 77 1018.7
20260506081009 59 81 0.0 0.0 0.00 0.00 0.00 77 1018.6
20260506080511 59 82 0.0 3.0 0.00 0.00 0.00 77 1018.5
20260506073510 59 79 0.0 2.0 0.00 0.00 0.00 80 1018.2
20260506073025 59 105 0.0 1.0 0.00 0.00 0.00 81 1018.2
20260506072517 59 105 0.0 1.0 0.00 0.00 0.00 81 1018.2
20260506072015 59 104 0.0 0.0 0.00 0.00 0.00 81 1018.2
20260506071527 59 105 0.0 0.0 0.00 0.00 0.00 81 1018.2
20260506071010 59 104 0.0 1.0 0.00 0.00 0.00 81 1018.2
20260506070509 59 104 0.0 1.0 0.00 0.00 0.00 81 1018.1
20260506062516 58 105 0.0 1.0 0.00 0.00 0.00 81 1017.9
20260506062010 58 108 0.0 0.0 0.00 0.00 0.00 82 1017.8
20260506061528 58 108 0.0 0.0 0.00 0.00 0.00 82 1017.8
20260506061016 58 108 0.0 0.0 0.00 0.00 0.00 81 1017.8
20260506060508 58 108 0.0 1.0 0.00 0.00 0.00 81 1017.8
20260506051004 57 244 0.0 0.0 0.00 0.00 0.00 83 1017.5
20260506050506 57 244 0.0 0.0 0.00 0.00 0.00 83 1017.5
20260506045005 56 244 0.0 0.0 0.00 0.00 0.00 83 1017.6
20260506044520 56 244 0.0 0.0 0.00 0.00 0.00 83 1017.6
20260506044013 57 244 0.0 0.0 0.00 0.00 0.00 82 1017.6
20260506043507 57 244 0.0 0.0 0.00 0.00 0.00 82 1017.4
20260506043020 57 244 0.0 0.0 0.00 0.00 0.00 82 1017.4
20260506042507 57 244 0.0 0.0 0.00 0.00 0.00 80 1017.3
20260506042017 57 244 0.0 0.0 0.00 0.00 0.00 79 1017.3
20260506041530 58 244 0.0 0.0 0.00 0.00 0.00 78 1017.2
20260506041009 58 244 0.0 0.0 0.00 0.00 0.00 78 1017.1
20260506040520 59 244 0.0 0.0 0.00 0.00 0.00 77 1017.1
20260506040009 59 244 0.0 0.0 0.00 0.00 0.00 77 1017.0
20260506035504 60 244 0.0 0.0 0.00 0.00 0.00 76 1016.8
20260506035004 60 244 0.0 0.0 0.00 0.00 0.00 75 1016.8
20260506034512 61 244 0.0 0.0 0.00 0.00 0.00 73 1016.7
20260506034007 61 244 0.0 0.0 0.00 0.00 0.00 72 1016.7
20260506033506 62 244 0.0 0.0 0.00 0.00 0.00 71 1016.6
20260506033021 62 244 0.0 0.0 0.00 0.00 0.00 70 1016.6
20260506032508 62 244 0.0 0.0 0.00 0.00 0.00 69 1016.5
20260506032010 63 244 0.0 0.0 0.00 0.00 0.00 69 1016.5
20260506031524 63 244 0.0 0.0 0.00 0.00 0.00 68 1016.5
20260506031009 63 244 0.0 0.0 0.00 0.00 0.00 68 1016.4
20260506030513 63 244 0.0 0.0 0.00 0.00 0.00 67 1016.4
20260506030026 64 243 0.0 1.0 0.00 0.00 0.00 68 1016.4
20260506025514 64 243 0.0 2.0 0.00 0.00 0.00 68 1016.4
20260506025009 64 217 0.0 2.0 0.00 0.00 0.00 68 1016.3
20260506024526 64 226 1.0 2.0 0.00 0.00 0.00 68 1016.2
20260506024005 64 214 0.0 2.0 0.00 0.00 0.00 68 1016.2
20260506023506 64 160 0.0 0.0 0.00 0.00 0.00 67 1016.3
20260506023014 64 233 0.0 0.0 0.00 0.00 0.00 67 1016.3
20260506022508 64 46 0.0 0.0 0.00 0.00 0.00 65 1016.2
20260506022007 64 46 0.0 0.0 0.00 0.00 0.00 66 1016.4
20260506021518 65 210 0.0 0.0 0.00 0.00 0.00 65 1016.3
20260506021011 65 211 0.0 0.0 0.00 0.00 0.00 65 1016.3
20260506020513 65 285 0.0 0.0 0.00 0.00 0.00 65 1016.3
20260506020024 65 295 0.0 0.0 0.00 0.00 0.00 64 1016.3
20260506015508 66 218 0.0 0.0 0.00 0.00 0.00 63 1016.3
20260506015010 66 275 0.0 0.0 0.00 0.00 0.00 63 1016.3
20260506014537 65 274 0.0 1.0 0.00 0.00 0.00 65 1016.3
20260506014011 65 302 0.0 3.0 0.00 0.00 0.00 64 1016.4
20260506013512 65 39 0.0 4.0 0.00 0.00 0.00 64 1016.4
20260506013030 66 339 2.0 4.0 0.00 0.00 0.00 64 1016.3